Tracking 27086 objects as of 23-Mar-2023
HD Live streaming from Space Station
objects crossing your sky now

SL-16 DEB

Track SL-16 DEB now!
10-day predictions


NORAD ID: 22598
Int'l Code: 1992-093HX
Perigee: 824.6 km
Apogee: 959.6 km
Inclination: 70.6 °
Period: 102.7 minutes
Semi major axis: 7263 km
RCS: 0.0076 m2 (small)
Launch date: December 25, 1992
Source: Commonwealth of Independent States (former USSR) (CIS)
Launch site: TYURATAM MISSILE AND SPACE COMPLEX (TTMTR)

Note: This is SATELLITE DEBRIS
Your satellite tracking list
Your tracking list is empty




NASA's NSSDC Master Catalog

Two Line Element Set (TLE):
1 22598U 92093HX  23081.28901471  .00000768  00000-0  51046-3 0  9995
2 22598  70.6460 310.9220 0092973 228.6223 130.6870 14.02555191541674
Source of the keplerian elements: AFSPC